Location: Mentone
(34.5413°N, 85.5351°W)
Time: 12:12:37
(UTC-05:00)

Uosat F - Visible Passes

Search period start: 01 October 2016 00:00
Search period end: 11 October 2016 00:00
Orbit: 751 x 761 km, 98.8° (Epoch: 30 September)

Date Brightness Start Highest point End Pass type
(mag) Time Alt. Az. Time Alt. Az. Time Alt. Az.
01 Oct 14.4 19:31:51 10° WSW 19:34:06 13° W 19:36:22 10° WNW visible
02 Oct 13.9 06:01:56 10° NE 06:05:57 23° E 06:09:55 10° SSE visible
02 Oct 13.1 18:49:53 10° SSW 18:54:23 34° W 18:58:56 10° NNW visible
04 Oct 13.9 19:10:36 10° SW 19:14:23 21° W 19:18:10 10° NW visible
05 Oct 14.4 05:43:32 10° ENE 05:46:14 14° E 05:48:55 10° SE visible
06 Oct 14.4 19:32:07 10° WSW 19:34:25 13° W 19:36:44 10° WNW visible
07 Oct 13.9 06:02:17 10° NE 06:06:16 23° E 06:10:14 10° SSE visible
07 Oct 13.0 18:50:11 10° SSW 18:54:42 34° W 18:59:16 10° NNW visible
09 Oct 13.9 19:10:54 10° SW 19:14:42 22° W 19:18:31 10° NW visible
10 Oct 14.4 05:43:53 10° ENE 05:46:33 14° E 05:49:12 10° SE visible
10 Oct 12.0 18:30:11 10° S 18:35:05 56° W 18:40:02 10° NNW visible
